STARLINK-5686 (55450 NORAD) Tracking and Keplerian Element Data

This shows tracking and keplerian element data for the satellite.

Feedback or suggestion? Click here.




ElementValue
Catalog55450
NameSTARLINK-5686
Epoch Orbit1446
Epoch Day126.93738513
Epoch Year2023
RAAN205.3179
Inclination43.0018
Eccentricity0.000121
Argument of Perigee277.8882
Mean Anonmoly82.1823
Mean Motion15.02541263
Decay Rate8.67E-06
L11 55450U 23015B 23126.93738513 .00000867 00000+0 79260-4 0 9991
L22 55450 43.0018 205.3179 0001210 277.8882 82.1823 15.02541263 14468



Live tracking and technical data element details for STARLINK-5686 (NORAD 55450). STARLINK-5686 can be tracked NOW for your location showing map with azimuth and elevation plus other details from your city location.







IsCatalogInMostPopularTable: catalog: 55450, numindb: -1

Insert: records affected: 1


GetName: 55450 STARLINK-5686

Hit Count: inserted at: Mon, 05 Jun 2023 21:17:06 GMT